GW4288 Weather Reports


time (UTC)temp
F
wind
direction
speed
knots
gust
knots
rain 1hr
in
rain 24hr
in
rain mn
in
humidity
%
barometer
mb
20260505223840 62 10 1.7 8.7 0.00 0.00 0.00 64 1007.4
20260505223340 62 116 4.3 7.8 0.00 0.00 0.00 64 1007.5
20260505222840 62 90 4.3 13.9 0.00 0.00 0.00 64 1007.4
20260505222340 62 98 0.9 13.9 0.00 0.00 0.00 63 1007.7
20260505221840 62 87 4.3 9.6 0.00 0.00 0.00 63 1007.4
20260505221341 62 135 0.9 8.7 0.00 0.00 0.00 63 1007.3
20260505220841 62 109 1.7 7.8 0.00 0.00 0.00 63 1007.4
20260505220341 62 91 3.5 13.0 0.00 0.00 0.00 62 1007.5
20260505215840 62 98 8.7 13.0 0.00 0.00 0.00 61 1007.4
20260505215341 62 10 3.5 6.1 0.00 0.00 0.00 61 1007.6
20260505214844 63 164 0.9 12.2 0.00 0.00 0.00 60 1007.4
20260505214343 63 137 5.2 12.2 0.00 0.00 0.00 60 1007.6
20260505213844 63 301 0.0 8.7 0.00 0.00 0.00 59 1007.4
20260505213633 63 119 0.0 2.6 0.00 0.00 0.00 59 1007.7
20260505212843 63 265 1.7 6.1 0.00 0.00 0.00 59 1007.6
20260505212342 63 309 0.0 8.7 0.00 0.00 0.00 58 1007.5
20260505211844 63 297 0.0 8.7 0.00 0.00 0.00 59 1007.6
20260505211343 63 53 1.7 7.0 0.00 0.00 0.00 58 1007.7
20260505210844 64 98 1.7 7.0 0.00 0.00 0.00 57 1007.7
20260505210344 64 63 0.9 11.3 0.00 0.00 0.00 57 1007.6
20260505205843 64 341 0.9 11.3 0.00 0.00 0.00 57 1007.7
20260505205343 64 140 1.7 7.0 0.00 0.00 0.00 57 1007.7
20260505204843 64 214 0.9 13.9 0.00 0.00 0.00 56 1007.7
20260505204343 65 74 2.6 13.9 0.00 0.00 0.00 55 1007.5
20260505203844 65 76 1.7 7.8 0.00 0.00 0.00 54 1007.6
20260505203343 65 262 5.2 7.0 0.00 0.00 0.00 54 1007.9
20260505202843 65 102 1.7 14.8 0.00 0.00 0.00 54 1007.5
20260505202626 65 119 6.1 14.8 0.00 0.00 0.00 53 1007.4
20260505201842 65 98 0.9 9.6 0.00 0.00 0.00 53 1007.5
20260505201628 66 108 0.9 13.0 0.00 0.00 0.00 52 1007.3
20260505200840 66 125 5.2 13.0 0.00 0.00 0.00 52 1007.6
20260505200341 66 97 7.8 12.2 0.00 0.00 0.00 52 1007.6
20260505195841 66 290 3.5 12.2 0.00 0.00 0.00 51 1007.5
20260505195341 66 67 0.0 7.0 0.00 0.00 0.00 52 1007.6
20260505194840 66 88 3.5 7.0 0.00 0.00 0.00 52 1007.6
20260505194340 66 69 0.0 7.0 0.00 0.00 0.00 52 1007.5
20260505193840 67 89 4.3 9.6 0.00 0.00 0.00 52 1007.6
20260505193341 67 71 5.2 11.3 0.00 0.00 0.00 51 1007.7
20260505192840 67 295 0.0 18.2 0.00 0.00 0.00 51 1007.7
20260505192341 67 244 1.7 18.2 0.00 0.00 0.00 51 1007.7
20260505191841 67 113 0.0 12.2 0.00 0.00 0.00 51 1007.6
20260505191340 67 83 3.5 12.2 0.00 0.00 0.00 51 1007.7
20260505191117 68 7 0.0 9.6 0.00 0.00 0.00 50 1007.7
20260505190624 68 10 5.2 9.6 0.00 0.00 0.00 50 1007.9
20260505185841 68 327 5.2 16.5 0.00 0.00 0.00 50 1007.7
20260505185341 69 94 1.7 16.5 0.00 0.00 0.00 50 1007.6
20260505184841 69 64 3.5 11.3 0.00 0.00 0.00 51 1008.0
20260505184426 69 99 2.6 7.0 0.00 0.00 0.00 50 1007.7
20260505184348 69 89 2.6 7.8 0.00 0.00 0.00 50 1007.5
20260505183341 69 27 0.0 8.7 0.00 0.00 0.00 50 1007.7
20260505182840 70 93 1.7 13.0 0.00 0.00 0.00 49 1007.5
20260505182341 70 131 1.7 13.0 0.00 0.00 0.00 49 1007.3
20260505181840 70 179 1.7 7.0 0.00 0.00 0.00 50 1007.3
20260505181645 70 135 0.9 13.0 0.00 0.00 0.00 49 1007.3
20260505181119 71 355 0.9 18.2 0.00 0.00 0.00 48 1007.4
20260505180345 71 42 4.3 18.2 0.00 0.00 0.00 49 1007.4
20260505175842 71 126 3.5 12.2 0.00 0.00 0.00 49 1007.4
20260505175343 71 102 3.5 11.3 0.00 0.00 0.00 49 1007.3
20260505174840 71 278 0.9 11.3 0.00 0.00 0.00 50 1007.5
20260505174353 72 69 3.5 11.3 0.00 0.00 0.00 49 1007.3
20260505173841 72 21 4.3 11.3 0.00 0.00 0.00 49 1007.5
20260505173343 72 283 0.9 7.0 0.00 0.00 0.00 49 1007.4
20260505173117 73 81 2.6 6.1 0.00 0.00 0.00 48 1007.4
20260505172344 73 69 0.0 7.0 0.00 0.00 0.00 47 1007.3
20260505171841 73 312 0.0 9.6 0.00 0.00 0.00 47 1007.3
20260505171348 74 109 3.5 9.6 0.00 0.00 0.00 46 1007.4
20260505170840 74 32 0.9 11.3 0.00 0.00 0.00 46 1007.3
20260505170356 74 84 1.7 13.0 0.00 0.00 0.00 46 1007.4
20260505165841 74 70 5.2 13.0 0.00 0.00 0.00 46 1007.2
20260505165340 74 139 3.5 11.3 0.00 0.00 0.00 45 1007.2
20260505164841 74 37 0.0 18.2 0.00 0.00 0.00 45 1007.3
20260505164341 74 51 10.4 18.2 0.00 0.00 0.00 45 1007.2
20260505163840 75 85 0.0 15.6 0.00 0.00 0.00 44 1007.2
20260505163342 75 74 3.5 15.6 0.00 0.00 0.00 45 1007.2
20260505162840 75 103 7.0 15.6 0.00 0.00 0.00 45 1007.4
20260505162340 76 27 2.6 9.6 0.00 0.00 0.00 44 1007.5
20260505162117 76 155 2.6 14.8 0.00 0.00 0.00 44 1007.3
20260505161341 75 69 4.3 14.8 0.00 0.00 0.00 44 1007.5
20260505160840 76 79 0.0 15.6 0.00 0.00 0.00 44 1007.3
20260505160340 75 111 0.9 15.6 0.00 0.00 0.00 44 1007.5
20260505153342 74 296 0.0 14.8 0.00 0.00 0.00 44 1007.7
20260505152843 74 19 1.7 15.6 0.00 0.00 0.00 44 1007.7
20260505152343 74 333 0.0 18.2 0.00 0.00 0.00 43 1007.6
20260505151842 74 302 4.3 18.2 0.00 0.00 0.00 41 1007.7
20260505151341 74 82 7.8 14.8 0.00 0.00 0.00 40 1007.9
20260505150839 75 50 2.6 19.1 0.00 0.00 0.00 37 1008.0
20260505150350 76 20 4.3 20.9 0.00 0.00 0.00 34 1007.9
20260505140602 78 67 7.8 13.0 0.00 0.00 0.00 34 1008.2
20260505124805 75 2 0.9 18.2 0.00 0.00 0.00 36 1009.0
20260505124305 74 36 0.0 18.2 0.00 0.00 0.00 35 1009.0
20260505124054 74 89 7.8 14.8 0.00 0.00 0.00 35 1008.9
20260505123301 74 149 4.3 13.0 0.00 0.00 0.00 36 1009.1
20260505122803 74 67 5.2 13.0 0.00 0.00 0.00 34 1009.2
20260505122305 74 196 1.7 19.1 0.00 0.00 0.00 34 1009.2
20260505121756 74 50 0.9 19.1 0.00 0.00 0.00 35 1009.2
20260505121256 75 96 8.7 14.8 0.00 0.00 0.00 34 1009.2
20260505120756 75 86 2.6 15.6 0.00 0.00 0.00 34 1009.2
20260505120256 75 72 4.3 16.5 0.00 0.00 0.00 34 1009.2
20260505120031 74 105 7.0 16.5 0.00 0.00 0.00 35 1009.1
20260505115255 74 59 2.6 16.5 0.00 0.00 0.00 35 1009.3
20260505114756 75 75 6.1 19.1 0.00 0.00 0.00 35 1009.4
20260505114256 75 109 5.2 19.1 0.00 0.00 0.00 34 1009.1
20260505113759 76 100 2.6 13.0 0.00 0.00 0.00 34 1009.3
20260505113256 77 89 4.3 15.6 0.00 0.00 0.00 33 1009.3
20260505112753 77 109 0.0 15.6 0.00 0.00 0.00 34 1009.2
20260505112253 77 124 4.3 13.9 0.00 0.00 0.00 34 1009.3
20260505112030 76 69 10.4 13.0 0.00 0.00 0.00 33 1009.1
20260505111251 77 137 0.0 12.2 0.00 0.00 0.00 33 1009.2
20260505110753 77 176 5.2 12.2 0.00 0.00 0.00 32 1009.3
20260505110253 78 44 5.2 15.6 0.00 0.00 0.00 32 1009.3
20260505102031 75 89 10.4 15.6 0.00 0.00 0.00 33 1009.7
20260505101252 75 95 3.5 15.6 0.00 0.00 0.00 33 1009.8
20260505100752 75 106 3.5 12.2 0.00 0.00 0.00 33 1009.7
20260505100556 74 162 0.9 15.6 0.00 0.00 0.00 34 1009.9
20260505095752 73 94 7.0 18.2 0.00 0.00 0.00 34 1010.0
20260505095252 72 39 5.2 18.2 0.00 0.00 0.00 34 1010.2
20260505094752 72 52 5.2 20.9 0.00 0.00 0.00 34 1010.2
20260505094256 72 60 2.6 20.9 0.00 0.00 0.00 35 1010.1
20260505093754 73 70 0.9 13.9 0.00 0.00 0.00 34 1010.1
20260505093254 73 65 12.2 13.9 0.00 0.00 0.00 33 1010.2
20260505092755 74 139 2.6 15.6 0.00 0.00 0.00 33 1010.2
20260505092255 74 48 1.7 20.9 0.00 0.00 0.00 34 1010.1
20260505091756 73 145 1.7 20.9 0.00 0.00 0.00 35 1010.0
20260505091255 74 101 5.2 16.5 0.00 0.00 0.00 34 1009.9
20260505091033 73 202 1.7 15.6 0.00 0.00 0.00 35 1010.1
20260505090255 73 306 1.7 9.6 0.00 0.00 0.00 35 1010.2
20260505090030 73 224 1.7 14.8 0.00 0.00 0.00 35 1010.3
20260505085252 72 56 13.0 14.8 0.00 0.00 0.00 35 1010.4
20260505084753 71 39 1.7 12.2 0.00 0.00 0.00 36 1010.4
20260505084528 72 63 5.2 25.2 0.00 0.00 0.00 35 1010.5
20260505083740 72 53 0.9 25.2 0.00 0.00 0.00 36 1010.3
20260505083240 72 279 3.5 26.9 0.00 0.00 0.00 35 1010.5
20260505082739 72 65 4.3 26.9 0.00 0.00 0.00 35 1010.3
20260505082240 73 105 3.5 15.6 0.00 0.00 0.00 35 1010.5
20260505081740 72 230 0.9 12.2 0.00 0.00 0.00 36 1010.2
20260505081240 72 221 0.9 18.2 0.00 0.00 0.00 38 1010.0
20260505080739 71 81 10.4 18.2 0.00 0.00 0.00 36 1010.2
20260505080240 71 70 4.3 13.9 0.00 0.00 0.00 37 1010.0
20260505075740 71 27 5.2 16.5 0.00 0.00 0.00 40 1010.2
20260505075239 71 245 0.9 16.5 0.00 0.00 0.00 39 1010.1
20260505074821 72 100 3.5 9.6 0.00 0.00 0.00 41 1010.0
20260505074817 70 41 3.5 11.3 0.00 0.00 0.00 42 1010.1
20260505074804 71 100 3.5 13.0 0.00 0.00 0.00 40 1010.1
20260505073240 70 93 0.9 11.3 0.00 0.00 0.00 43 1010.1
20260505073018 70 63 5.2 13.0 0.00 0.00 0.00 43 1010.0
20260505072241 69 111 6.1 13.0 0.00 0.00 0.00 44 1010.1
20260505071740 70 145 7.8 14.8 0.00 0.00 0.00 44 1010.1
20260505071240 69 265 3.5 14.8 0.00 0.00 0.00 45 1010.4
20260505070739 69 3 2.6 15.6 0.00 0.00 0.00 44 1010.3
20260505070240 69 116 1.7 16.5 0.00 0.00 0.00 44 1010.3
20260505065741 69 56 9.6 16.5 0.00 0.00 0.00 46 1010.2
20260505065241 69 227 3.5 12.2 0.00 0.00 0.00 46 1010.2
20260505064740 69 191 1.7 12.2 0.00 0.00 0.00 46 1010.2
20260505064527 69 103 2.6 9.6 0.00 0.00 0.00 46 1010.1
20260505063742 68 89 0.9 14.8 0.00 0.00 0.00 49 1010.2
20260505063243 68 63 1.7 14.8 0.00 0.00 0.00 49 1009.9
20260505062743 68 323 1.7 8.7 0.00 0.00 0.00 47 1010.2
20260505062243 68 67 2.6 8.7 0.00 0.00 0.00 47 1010.2
20260505061740 68 298 1.7 8.7 0.00 0.00 0.00 47 1010.3
20260505061240 67 327 2.6 8.7 0.00 0.00 0.00 47 1010.5
20260505060739 67 48 1.7 8.7 0.00 0.00 0.00 47 1010.5
20260505060239 66 81 3.5 7.0 0.00 0.00 0.00 48 1010.7
20260505055737 63 324 0.9 7.0 0.00 0.00 0.00 52 1010.9
20260505055232 58 325 2.6 2.6 0.00 0.00 0.00 64 1010.9
20260505054728 57 104 0.9 5.2 0.00 0.00 0.00 67 1011.0
20260505054225 55 342 1.7 5.2 0.00 0.00 0.00 68 1011.0
20260505053720 55 278 0.0 2.6 0.00 0.00 0.00 69 1011.0
20260505053216 55 24 0.9 3.5 0.00 0.00 0.00 68 1010.7
20260505052716 56 300 1.7 3.5 0.00 0.00 0.00 67 1010.7
20260505052216 55 21 0.9 2.6 0.00 0.00 0.00 67 1011.1
20260505051705 56 301 1.7 1.7 0.00 0.00 0.00 68 1011.1
20260505051204 57 106 0.0 0.9 0.00 0.00 0.00 69 1011.0
20260505050938 56 276 0.0 1.7 0.00 0.00 0.00 64 1011.0
20260505050200 57 348 0.0 2.6 0.00 0.00 0.00 58 1011.1
20260505041700 54 169 0.0 7.0 0.00 0.00 0.00 64 1011.4
20260505041200 53 288 0.9 7.0 0.00 0.00 0.00 62 1011.2
20260505040700 50 6 0.9 1.7 0.00 0.00 0.00 69 1011.4
20260505040228 51 103 0.9 2.6 0.00 0.00 0.00 72 1011.3
20260505040219 49 115 0.0 2.6 0.00 0.00 0.00 70 1011.4
20260505035159 52 287 0.9 2.6 0.00 0.00 0.00 64 1011.5
20260505034652 51 316 0.0 3.5 0.00 0.00 0.00 66 1011.5
20260505034152 51 337 0.9 3.5 0.00 0.00 0.00 65 1011.5
20260505033652 49 317 0.0 3.5 0.00 0.00 0.00 71 1011.4
20260505033152 48 119 0.9 3.5 0.00 0.00 0.00 76 1011.1
20260505032651 48 119 1.7 3.5 0.00 0.00 0.00 77 1011.4
20260505032153 49 104 1.7 2.6 0.00 0.00 0.00 73 1011.3
20260505031652 49 104 2.6 2.6 0.00 0.00 0.00 72 1011.5
20260505031152 49 104 0.0 1.7 0.00 0.00 0.00 72 1011.6
20260505030652 49 104 0.9 3.5 0.00 0.00 0.00 75 1011.7
20260505030152 49 104 0.9 3.5 0.00 0.00 0.00 73 1011.5
20260505025944 48 104 1.7 3.5 0.00 0.00 0.00 76 1011.7
20260505025152 47 103 1.7 3.5 0.00 0.00 0.00 75 1011.9
20260505024651 47 101 1.7 3.5 0.00 0.00 0.00 80 1012.0
20260505024151 45 101 1.7 2.6 0.00 0.00 0.00 82 1012.1
20260505023652 44 101 1.7 1.7 0.00 0.00 0.00 85 1012.0
20260505023150 44 101 0.9 0.9 0.00 0.00 0.00 85 1012.1
20260505022651 44 101 0.0 0.0 0.00 0.00 0.00 84 1012.2
20260505022149 44 101 0.0 0.9 0.00 0.00 0.00 83 1012.2
20260505021653 44 101 0.0 0.9 0.00 0.00 0.00 84 1012.3
20260505021425 45 101 0.9 0.9 0.00 0.00 0.00 84 1012.4
20260505020921 45 101 0.0 0.9 0.00 0.00 0.00 84 1012.3
20260505020142 45 101 0.0 1.7 0.00 0.00 0.00 84 1012.6
20260505015650 45 101 0.9 1.7 0.00 0.00 0.00 83 1012.6
20260505015142 45 101 0.0 0.0 0.00 0.00 0.00 83 1012.7
20260505014650 46 101 0.0 0.0 0.00 0.00 0.00 82 1012.6
20260505014142 46 101 0.0 0.0 0.00 0.00 0.00 81 1012.6
20260505013652 46 101 0.0 0.0 0.00 0.00 0.00 78 1012.8
20260505013143 46 101 0.0 0.0 0.00 0.00 0.00 80 1012.8
20260505012643 47 101 0.0 1.7 0.00 0.00 0.00 78 1012.7
20260505012504 47 101 0.0 3.5 0.00 0.00 0.00 79 1012.5
20260505011642 46 100 1.7 3.5 0.00 0.00 0.00 79 1012.8
20260505011142 47 91 3.5 3.5 0.00 0.00 0.00 78 1013.0
20260505010642 46 83 0.9 2.6 0.00 0.00 0.00 78 1012.9
20260505010142 46 83 0.0 2.6 0.00 0.00 0.00 79 1013.1
20260505005643 46 83 1.7 2.6 0.00 0.00 0.00 79 1013.2
20260505005142 46 83 0.9 2.6 0.00 0.00 0.00 79 1013.2
20260505004917 46 83 1.7 1.7 0.00 0.00 0.00 78 1013.2
20260505004145 46 83 0.0 2.6 0.00 0.00 0.00 78 1013.2
20260505003642 46 83 0.0 2.6 0.00 0.00 0.00 78 1013.0
20260505003143 47 83 1.7 2.6 0.00 0.00 0.00 77 1013.0
20260505002640 47 83 0.9 2.6 0.00 0.00 0.00 74 1013.1
20260505002141 49 83 2.6 2.6 0.00 0.00 0.00 72 1013.3
20260505001640 49 29 0.0 2.6 0.00 0.00 0.00 74 1013.3
20260505001140 50 28 0.9 2.6 0.00 0.00 0.00 68 1013.3
20260505000640 51 28 0.0 2.6 0.00 0.00 0.00 69 1013.2
20260505000141 50 28 1.7 3.5 0.00 0.00 0.00 69 1013.5
20260504235639 49 97 0.0 3.5 0.00 0.00 0.00 69 1013.4
20260504235140 49 94 0.0 1.7 0.00 0.00 0.00 70 1013.4
20260504234641 49 94 1.7 2.6 0.00 0.00 0.00 71 1013.5
20260504234141 48 94 1.7 3.5 0.00 0.00 0.00 73 1013.4
20260504233644 48 95 1.7 3.5 0.00 0.00 0.00 73 1013.5
20260504233145 47 97 3.5 3.5 0.00 0.00 0.00 75 1013.5
20260504232644 48 95 2.6 3.5 0.00 0.00 0.00 72 1013.7
20260504232146 48 102 1.7 3.5 0.00 0.00 0.00 74 1013.7
20260504231642 47 92 1.7 1.7 0.00 0.00 0.00 77 1013.6
20260504231147 47 92 0.0 2.6 0.00 0.00 0.00 77 1013.7
20260504230643 48 92 0.9 2.6 0.00 0.00 0.00 75 1013.7
20260504230146 47 92 0.9 2.6 0.00 0.00 0.00 74 1013.8
20260504225643 48 92 1.7 2.6 0.00 0.00 0.00 77 1014.0
20260504225146 48 92 0.9 1.7 0.00 0.00 0.00 72 1014.1
20260504224643 49 92 0.9 1.7 0.00 0.00 0.00 72 1014.2
20260504224145 49 92 0.0 1.7 0.00 0.00 0.00 71 1014.4